SHIYAN-29

Last updated on Thu Oct 30 2025 00:02:53 GMT+0000 (Coordinated Universal Time)

1 65486U 25196A 25302.69144704 -.00000259 00000+0 00000+0 0 9994 2 65486 28.5687 21.4403 0010714 177.8449 182.9275 1.00269583 574
UTC large
Height (km)
Speed (km/s)
/
Latitude / Longitude
Inclination (degrees)
Orbital Period (minutes)
Azimuth
Elevation
Range (km)
Doppler Factor

Next 0 passes for location: London (51.5072 / 0.1276)

Sorry there are no passes over London.